STARLINK-1668 (46536 NORAD) Tracking and Keplerian Element Data

This shows tracking and keplerian element data for the satellite.

Feedback or suggestion? Click here.




ElementValue
Catalog46536
NameSTARLINK-1668
Epoch Orbit175
Epoch Day26.91667824
Epoch Year2021
RAAN281.2054
Inclination53.0575
Eccentricity0.000309
Argument of Perigee77.8913
Mean Anonmoly106.419
Mean Motion15.02333057
Decay Rate-0.00024853
L11 46536U 20070E 21026.91667824 -.00024853 00000-0 -18462-2 0 9994
L22 46536 53.0575 281.2054 0003090 77.8913 106.4190 15.02333057 1753

Live tracking and technical data element details for STARLINK-1668 (NORAD 46536). STARLINK-1668 can be tracked NOW for your location showing map with azimuth and elevation plus other details from your city location.

Track the satellite on the map from your city or location and see movement details for azimuth, elevation, latitude, longitude, range, height, and movement on the map or in text.







IsCatalogInMostPopularTable: catalog: 46536, numindb: 36
Update: records affected: 1



GetName: 46536 STARLINK-1668

Hit Count: updated at: Thu, 28 Jan 2021 12:24:19 GMT